Location: Croydon
(51.3762°N, 0.0982°W)
Time: 05:42:56
(UTC+00:00)

Altair - Pass Details

Date: 20 November 2019
Orbit: 1502 x 1682 km, 47.2° (Epoch: 12 December)

Event Time Altitude Azimuth Distance (km) Brightness Sun altitude
Rises 09:46:51 0° 286° (WNW) 4,666 9.6 14.3°
Reaches altitude 10° 09:50:41 10° 273° (W) 3,700 9.3 14.6°
Maximum altitude 09:57:18 22° 227° (SW) 2,886 9.3 15.1°
Drops below altitude 10° 10:04:05 10° 181° (S) 3,783 11.0 15.5°
Sets 10:08:05 0° 167° (SSE) 4,797 11.8 15.8°
